This demonstration page uses our WeatherBlox Daily Observations layout. Learn more.

Hourly Observations for January 2, 2017

Temp ( °F °C ) Dew Point ( °F °C ) Humidity (%) Winds ( mph kmh ) Pressure ( in mb ) Visibility ( mi km ) Precip ( " mm )
12:42 am 00:42 Cloudy 37 3 27 -3 65 65 ESE 8 13 29.88 1012 10 16.0934 0 0
12:54 am 00:54 Cloudy 37 2.8 27 -2.8 67 67 ESE 6 9 29.89 1012 10 16.0934 0 0
1:54 am 01:54 Cloudy 37 2.8 28 -2.2 70 70 SE 10 17 29.87 1012 10 16.0934 0 0
2:54 am 02:54 Cloudy 37 2.8 28 -2.2 70 70 SE 8 13 29.86 1011 10 16.0934 0 0
3:30 am 03:30 Cloudy 37 3 28 -2 70 70 SE 12 19 29.85 1011 10 16.0934 0 0
3:40 am 03:40 Cloudy 37 3 28 -2 70 70 SE 10 17 29.85 1011 10 16.0934 0 0
3:54 am 03:54 Cloudy 37 2.8 29 -1.7 73 73 SE 12 19 29.85 1011 10 16.0934 0 0
4:54 am 04:54 Cloudy 37 2.8 30 -1.1 76 76 ESE 8 13 29.85 1011 10 16.0934 0 0
5:54 am 05:54 Cloudy 37 2.8 30 -1.1 76 76 E 6 9 29.85 1011 10 16.0934 0 0
6:54 am 06:54 Cloudy 37 2.8 30 -1.1 76 76 E 8 13 29.85 1011 10 16.0934 0 0
7:54 am 07:54 Cloudy 37 2.8 31 -0.6 79 79 E 7 11 29.86 1011 10 16.0934 0 0
8:54 am 08:54 Cloudy with Mist and Fog 36 2.2 32 0 86 86 ENE 6 9 29.88 1012 4 6.43736 0 0
9:54 am 09:54 Cloudy with Mist and Fog 36 2.2 33 0.6 89 89 ENE 7 11 29.9 1012 5 8.0467 0 0
10:54 am 10:54 Cloudy with Mist and Fog 37 3 34 1 87 87 E 8 13 29.88 1012 5 8.0467 0 0
11:22 am 11:22 Cloudy with Mist and Fog 37 3 36 2 93 93 ENE 7 11 29.85 1011 1.75 2.816345 0 0
11:54 am 11:54 Cloudy with Mist and Fog 37 2.8 35 1.7 93 93 ENE 9 15 29.85 1011 2 3.21868 0 0
12:54 pm 12:54 Cloudy with Mist and Fog 37 2.8 36 2.2 96 96 ENE 9 15 29.82 1010 2 3.21868 0 0
1:03 pm 13:03 Cloudy with Mist and Fog 37 3 36 2 93 93 ENE 8 13 29.83 1010 1.75 2.816345 0 0
1:54 pm 13:54 Cloudy with Mist and Fog 38 3.3 36 2.2 93 93 NE 8 13 29.8 1009 1.75 2.816345 0 0
2:54 pm 14:54 Cloudy with Mist and Fog 38 3.3 36 2.2 93 93 NNE 7 11 29.82 1010 1.25 2.011675 0 0
3:19 pm 15:19 Cloudy with Mist and Fog 37 2.8 36 2.2 96 96 NE 7 11 29.83 1010 0.75 1.207005 0 0
3:54 pm 15:54 Cloudy with Fog 37 2.8 37 2.8 100 100 NNE 8 13 29.85 1011 0.5 0.80467 0 0
4:09 pm 16:09 Cloudy with Fog 37 2.8 37 2.8 100 100 NNE 8 13 29.85 1011 0.25 0.402335 0 0
4:54 pm 16:54 Mostly Cloudy with Fog 37 2.8 36 2.2 96 96 N 12 19 29.87 1012 0.5 0.80467 0 0
5:54 pm 17:54 Cloudy with Mist and Fog 36 2.2 36 2.2 100 100 N 14 22 29.91 1013 0.75 1.207005 0 0
6:04 pm 18:04 Cloudy with Mist and Fog 36 2 36 2 100 100 N 13 20 29.94 1014 1.25 2.011675 0 0
6:32 pm 18:32 Cloudy with Mist and Fog 36 2 36 2 100 100 N 13 20 29.97 1015 2 3.21868 0 0
6:45 pm 18:45 Cloudy with Mist and Fog 35 1.7 35 1.7 100 100 N 14 22 29.97 1015 3 4.82802 0 0
6:54 pm 18:54 Cloudy with Mist and Fog 35 1.7 34 1.1 96 96 N 15 24 29.94 1014 3 4.82802 0 0
7:54 pm 19:54 Cloudy 35 1.7 33 0.6 93 93 N 16 26 29.98 1015 8 12.87472 0 0
8:54 pm 20:54 Cloudy 35 1.7 33 0.6 93 93 N 16 26 29.99 1016 7 11.26538 0 0
9:11 pm 21:11 Cloudy 35 1.7 32 0 89 89 N 20 31 30.03 1017 8 12.87472 0 0
9:54 pm 21:54 Cloudy 34 1.1 32 0 92 92 N 17 28 30 1016 9 14.48406 0 0
10:54 pm 22:54 Cloudy 34 1.1 30 -1.1 85 85 N 15 24 30.04 1017 10 16.0934 0 0
11:54 pm 23:54 Cloudy 30 -1.1 26 -3.3 85 85 NNW 18 30 30.07 1018 10 16.0934 0 0

Powered by AerisWeather